Simultaneous Nadir Overpasses (SNOs) Predictions

Prediction of SNOs near US between AQUA and NPP Satellite Orbit:

Table of predicted SNOs near US for the next 10.0 days since TLE Epoch: 10/16/2015
Index Date (AQUA) Time (AQUA) AQUA Lat,Lon Date (NPP) Time (NPP) NPP Lat,Lon Distance(km) Time Diff (sec)
1 10/18/2015 07:45:33 20.04, -89.53 10/18/2015 07:38:04 19.98, -89.36 19.23 449
2 10/18/2015 09:21:06 32.08,-111.26 10/18/2015 09:16:06 32.15,-111.55 28.41 300
3 10/21/2015 06:30:17 46.45, -65.04 10/21/2015 06:33:16 46.86, -67.00 156.37 179
4 10/21/2015 08:08:12 49.90, -88.39 10/21/2015 08:13:45 50.37, -90.88 184.89 333
5 10/21/2015 09:47:05 49.91,-113.10 10/21/2015 09:55:12 50.53,-116.18 229.25 487
6 10/23/2015 19:06:24 49.98, -92.58 10/23/2015 19:04:00 49.65, -94.35 131.89 144
7 10/23/2015 20:45:07 49.38,-117.05 10/23/2015 20:45:17 48.91,-119.40 178.55 10
8 10/26/2015 08:33:23 26.34,-100.42 10/26/2015 08:26:56 26.34,-100.45 3.75 387
9 10/26/2015 10:09:37 35.84,-122.61 10/26/2015 10:05:41 35.97,-123.12 48.59 237




NCC Satellite Simultaneous Nadir Overpasses (SNOs) Prediction Service
